This demonstration page uses our WeatherBlox Daily Observations layout. Learn more.

Left ArrowRight Arrow

39.92423, -83.80882

Hourly Observations for February 3, 2022

Temp ( °F °C ) Dew Point ( °F °C ) Humidity (%) Winds ( mph kmh ) Pressure ( in mb ) Visibility ( mi km ) Precip ( " mm )
12:31 am 00:31 Cloudy with Light Rain 32 0 N/A N/A NNE 17 28 30.15 1021 8 13 0.00 0.00
12:56 am 00:56 Cloudy with Light Wintry Mix 32 0 N/A N/A NNE 16 26 30.14 1021 9 14 0.00 0.00
1:56 am 01:56 Cloudy with Light Snow 31 -0.6 31 -0.6 100 100 NNE 18 30 30.15 1021 9 14 0.00 0.00
2:22 am 02:22 Cloudy with Light Snow 30 -1 30 -1 100 100 NNE 18 30 30.18 1022 7 11 0.00 0.00
2:56 am 02:56 Windy with Snow Likely 30 -1.1 30 -1.1 100 100 NNE 22 35 30.16 1021 8 13 0.00 0.00
3:56 am 03:56 Cloudy with Light Wintry Mix 29 -1.7 29 -1.7 100 100 NE 21 33 30.15 1021 10 16 0.00 0.00
4:56 am 04:56 Cloudy with Light Snow 30 -1.1 30 -1.1 100 100 NE 14 22 30.17 1022 7 11 0.00 0.00
5:32 am 05:32 Cloudy with Light Snow 28 -2 28 -2 100 100 NNE 17 28 30.20 1023 8 13 0.00 0.00
5:56 am 05:56 Windy with Snow Likely 29 -1.7 29 -1.7 100 100 NNE 20 31 30.18 1022 5 8 0.00 0.00
6:13 am 06:13 Cloudy with Light Snow 28 -2 28 -2 100 100 NNE 12 19 30.21 1023 4 6 0.00 0.00
6:56 am 06:56 Cloudy with Light Snow 28 -2.2 28 -2.2 100 100 NNE 16 26 30.20 1023 4 6 0.00 0.00
7:56 am 07:56 Cloudy with Light Snow 27 -2.8 27 -2.8 100 100 NE 17 28 30.19 1022 3 5 0.00 0.00
8:39 am 08:39 Cloudy with Light Snow 27 -3 27 -3 100 100 NE 17 28 30.23 1024 2 3 0.00 0.00
8:56 am 08:56 Cloudy with Light Snow 26 -3.3 26 -3.3 100 100 NNE 15 24 30.21 1023 4 6 0.00 0.00
9:40 am 09:40 Cloudy with Light Snow 27 -3 27 -3 100 100 NNE 18 30 30.25 1024 3 4 0.00 0.00
9:56 am 09:56 Cloudy with Light Snow 25 -3.9 25 -3.9 100 100 N 10 17 30.24 1024 3 4 0.00 0.00
10:31 am 10:31 Cloudy with Light Snow 25 -4 25 -4 100 100 NNE 18 30 30.25 1024 2 3 0.00 0.00
10:40 am 10:40 Cloudy with Light Snow 25 -4 25 -4 100 100 NNE 17 28 30.25 1024 3 4 0.00 0.00
10:56 am 10:56 Windy with Snow Likely 25 -3.9 25 -3.9 100 100 NNE 20 31 30.20 1023 2 3 0.00 0.00
11:16 am 11:16 Cloudy with Light Snow 25 -4 25 -4 100 100 NNE 18 30 30.25 1024 3 5 0.00 0.00
11:23 am 11:23 Windy with Snow Likely 25 -4 25 -4 100 100 NE 25 41 30.23 1024 3 4 0.00 0.00
11:56 am 11:56 Windy with Snow Likely 25 -3.9 25 -3.9 100 100 NNE 20 31 30.18 1022 3 5 0.00 0.00
12:03 pm 12:03 Windy with Snow Likely 25 -4 25 -4 100 100 NNE 20 31 30.20 1023 3 5 0.00 0.00
12:56 pm 12:56 Windy with Snow Likely 25 -3.9 25 -3.9 100 100 NNE 21 33 30.14 1021 3 5 0.00 0.00
1:29 pm 13:29 Cloudy with Light Snow 25 -4 25 -4 100 100 NNE 15 24 30.18 1022 3 4 0.00 0.00
1:56 pm 13:56 Cloudy with Light Snow 25 -3.9 25 -3.9 100 100 NNE 16 26 30.15 1021 2 3 0.00 0.00
2:11 pm 14:11 Cloudy with Light Snow 25 -4 25 -4 100 100 NNE 18 30 30.17 1022 2 3 0.00 0.00
2:25 pm 14:25 Cloudy with Light Snow 25 -4 25 -4 100 100 NNE 16 26 30.16 1021 2 3 0.00 0.00
2:56 pm 14:56 Cloudy with Light Snow 25 -3.9 25 -3.9 100 100 N 18 30 30.12 1020 3 4 0.00 0.00
3:11 pm 15:11 Cloudy with Light Snow 25 -4 25 -4 100 100 NNE 18 30 30.13 1020 4 6 0.00 0.00
3:56 pm 15:56 Windy with Snow Likely 24 -4.4 23 -5 96 96 NNE 20 31 30.12 1020 5 8 0.00 0.00
4:15 pm 16:15 Cloudy with Light Snow 25 -4 25 -4 100 100 NNE 15 24 30.15 1021 2 3 0.00 0.00
4:22 pm 16:22 Windy with Snow Likely 25 -4 25 -4 100 100 NNE 21 33 30.15 1021 1 1 0.00 0.00
4:34 pm 16:34 Cloudy with Snow 23 -5 23 -5 100 100 NNE 17 28 30.17 1022 1 1 0.00 0.00
4:56 pm 16:56 Cloudy with Light Snow 23 -5 23 -5 100 100 NNE 18 30 30.14 1021 1 1 0.00 0.00
5:16 pm 17:16 Cloudy with Light Snow 21 -6 21 -6 100 100 NNE 18 30 30.18 1022 1 1 0.00 0.00
5:45 pm 17:45 Windy with Snow Likely 21 -6 21 -6 100 100 NNE 20 31 30.18 1022 1 2 0.00 0.00
5:56 pm 17:56 Cloudy with Light Snow 22 -5.6 22 -5.6 100 100 NNE 16 26 30.15 1021 1 2 0.00 0.00
6:13 pm 18:13 Cloudy with Light Snow 21 -6 21 -6 100 100 NNE 18 30 30.18 1022 2 2 0.00 0.00
6:24 pm 18:24 Windy with Snow Likely 21 -6 19 -7 93 93 NNE 23 37 30.17 1022 2 3 0.00 0.00
6:53 pm 18:53 Windy with Snow Likely 21 -6 19 -7 93 93 N 20 31 30.19 1022 3 5 0.00 0.00
6:56 pm 18:56 Cloudy with Light Snow 21 -6.1 20 -6.7 96 96 NNE 18 30 30.16 1021 3 5 0.00 0.00
7:28 pm 19:28 Windy with Snow Likely 21 -6 19 -7 93 93 NNE 21 33 30.19 1022 5 8 0.00 0.00
7:54 pm 19:54 Windy with Snow Likely 21 -6 19 -7 93 93 NNE 21 33 30.19 1022 3 4 0.00 0.00
7:56 pm 19:56 Windy with Snow Likely 21 -6.1 20 -6.7 96 96 NNE 20 31 30.16 1022 3 4 0.00 0.00
8:03 pm 20:03 Cloudy with Light Snow 19 -7 19 -7 100 100 NNE 18 30 30.20 1023 3 5 0.00 0.00
8:13 pm 20:13 Windy with Snow Likely 19 -7 19 -7 100 100 NNE 24 39 30.20 1023 3 4 0.00 0.00
8:40 pm 20:40 Cloudy with Light Snow 19 -7 19 -7 100 100 NNE 18 30 30.21 1023 4 6 0.00 0.00
8:56 pm 20:56 Cloudy with Light Snow 20 -6.7 19 -7.2 96 96 NNE 18 30 30.16 1021 3 5 0.00 0.00
9:23 pm 21:23 Windy with Snow Likely 19 -7 19 -7 100 100 NNE 20 31 30.21 1023 3 4 0.00 0.00
9:56 pm 21:56 Windy with Snow Likely 20 -6.7 19 -7.2 96 96 NNE 21 33 30.16 1021 3 4 0.00 0.00
10:04 pm 22:04 Windy with Snow Likely 19 -7 19 -7 100 100 NNE 20 31 30.20 1023 3 4 0.00 0.00
10:12 pm 22:12 Windy with Snow Likely 19 -7 19 -7 100 100 NNE 20 31 30.21 1023 3 5 0.00 0.00
10:20 pm 22:20 Cloudy with Light Snow 19 -7 19 -7 100 100 NNE 16 26 30.22 1023 3 4 0.00 0.00
10:56 pm 22:56 Cloudy with Light Snow 20 -6.7 19 -7.2 96 96 NNE 18 30 30.16 1022 3 4 0.00 0.00
11:03 pm 23:03 Cloudy with Light Snow 19 -7 19 -7 100 100 NNE 17 28 30.21 1023 3 5 0.00 0.00
11:14 pm 23:14 Cloudy with Light Snow 19 -7 19 -7 100 100 N 16 26 30.21 1023 3 4 0.00 0.00
11:23 pm 23:23 Cloudy with Light Snow 19 -7 19 -7 100 100 NNE 17 28 30.21 1023 3 5 0.00 0.00
11:48 pm 23:48 Cloudy with Light Snow 19 -7 18 -8 93 93 N 18 30 30.20 1023 5 8 0.00 0.00
11:56 pm 23:56 Windy with Snow Likely 19 -7.2 18 -7.8 96 96 NNE 21 33 30.16 1021 5 8 0.00 0.00

Powered by AerisWeather